Wetbulb
63.77 60.84 57.89 59.39 59.69 59.05 57.48 55.37 54.44 56.42 62.54 62.05 61.08 61.78 62.89 63.97 63.26 61.89 62.67 63.53 64.74 65.86 67.88 68.79 70.00 71.19 71.05 70.25 69.81 71.02 72.31 74.08 74.16 73.11 72.98 73.12 72.90 73.49 74.37 76.52 76.93 76.77 76.23 75.80
60.08 57.01 60.42 61.41 60.12 58.13 57.00 54.75 54.29 56.41 61.81 62.27 61.49 60.86 63.45 64.04 63.63 63.33 62.85 63.23 64.06 65.23 66.48 67.47 69.07 69.81 70.71 71.13 71.47 71.57 72.58 74.01 73.99 74.25 74.14 74.02 73.48 73.07 73.94 76.72 77.34 77.50 77.05 76.89
57.22 59.31 60.18 58.59 57.73 54.61 54.32 53.75 54.08 55.33 60.65 62.14 61.10 58.97 61.10 63.85 65.29 64.85 64.04 64.35 64.60 64.49 65.36 66.53 67.66 69.01 69.62 70.89 71.55 71.77 72.57 73.58 74.24 74.74 74.05 73.66 74.19 73.88 73.97 74.93 76.37 76.98 77.16 77.04
58.40 60.28 56.52 55.12 53.44 53.85 50.39 54.50 55.85 57.75 58.18 55.23 60.55 53.86 59.10 62.24 62.73 64.12 64.98 63.77 63.91 64.57 65.69 66.81 67.37 68.34 68.75 68.89 70.13 71.44 72.30 72.98 73.58 74.56 74.69 73.98 71.89 71.31 72.90 74.51 75.59 77.04 77.12 77.04
55.41 55.20 55.51 55.04 54.96 54.30 53.31 56.66 56.71 59.62 57.98 57.70 57.27 55.59 57.54 61.40 60.66 62.91 65.04 65.68 65.01 65.12 65.54 65.37 66.64 68.21 68.97 68.35 68.91 70.35 71.87 72.13 73.92 74.01 74.63 73.78 72.84 72.53 73.31 74.63 74.74 76.30 77.06 77.05
57.85 60.54 58.22 57.76 56.08 54.41 59.36 59.07 57.84 58.19 58.02 52.06 54.74 55.80 56.52 58.36 60.97 63.39 65.41 66.27 66.63 66.43 65.88 66.37 66.86 67.68 68.19 69.07 69.08 68.94 70.61 71.91 72.39 73.07 73.91 73.87 73.36 73.17 72.24 73.52 74.00 74.78 75.53 76.67
52.86 53.38 54.95 55.93 52.95 53.28 56.65 56.33 50.98 50.16 51.16 49.70 53.14 55.24 56.96 60.17 62.74 64.45 64.93 65.78 67.23 67.94 67.58 67.16 66.91 66.18 66.93 67.57 68.22 69.14 70.46 72.24 73.55 73.05 72.91 73.53 73.83 73.99 73.47 73.55 72.85 74.19 74.17 75.32
49.20 49.07 52.56 53.63 54.04 52.41 53.50 52.34 48.57 43.35 46.37 49.01 52.79 51.86 57.44 60.14 61.45 64.85 66.81 67.14 67.48 67.76 68.61 68.41 68.46 67.99 67.31 67.64 68.61 69.29 69.72 71.23 72.50 73.01 73.31 73.78 73.95 73.30 73.03 73.20 73.08 73.19 73.62 74.29
50.56 49.22 53.64 53.72 54.30 53.75 50.63 49.48 51.80 49.79 50.74 51.49 53.78 55.61 58.19 59.48 60.91 62.24 63.76 65.89 66.50 67.44 68.33 68.88 69.56 68.90 68.97 68.67 69.11 69.80 70.86 71.00 71.29 71.96 72.94 73.24 73.59 73.27 72.71 73.71 73.63 72.76 74.19 73.90
52.72 48.81 52.83 52.60 54.64 53.48 52.58 53.77 50.55 53.26 47.41 46.17 50.59 51.60 53.62 57.20 59.05 61.49 63.07 64.30 65.97 68.06 68.34 68.84 69.54 69.84 69.71 69.55 69.75 69.78 70.51 70.41 70.71 70.83 71.18 71.45 71.61 72.10 72.32 72.51 72.69 73.03 73.15 74.13
53.93 51.92 52.45 54.41 53.40 53.00 51.81 51.86 50.71 53.56 52.45 48.87 47.16 50.49 58.08 58.54 60.76 60.96 63.18 65.41 66.66 67.47 68.44 69.01 68.97 69.50 69.99 69.92 69.80 69.32 69.65 69.80 70.19 70.45 70.74 70.40 70.59 70.43 70.97 71.27 72.19 72.26 72.68 74.39
55.09 52.94 50.19 51.04 53.96 54.26 54.49 53.06 52.29 49.71 48.45 51.99 51.63 51.36 58.87 59.32 59.45 62.13 63.12 64.79 66.30 68.03 68.74 69.56 69.79 69.50 68.75 68.85 69.41 69.67 69.94 69.90 70.43 70.73 70.68 70.34 70.73 71.12 71.04 71.18 71.22 73.55 74.04 74.98
52.78 52.58 48.39 49.73 52.12 53.27 53.61 51.22 49.97 53.82 55.08 52.58 50.01 50.78 58.97 60.43 61.37 62.45 62.80 64.17 65.55 67.21 67.80 68.74 68.77 69.63 70.31 70.18 70.55 70.49 70.76 70.64 71.16 71.07 70.70 70.73 71.26 71.33 71.12 71.03 72.10 73.06 73.99 74.44
57.36 50.84 51.00 48.52 51.91 52.95 52.17 51.04 53.23 52.14 51.49 52.62 53.00 53.20 56.78 59.15 60.03 61.31 62.24 63.19 64.24 65.43 66.62 67.90 68.48 69.07 69.47 70.19 70.26 70.83 71.10 71.90 71.80 71.60 71.80 71.94 72.05 72.21 72.22 72.97 73.46 73.71 75.31 75.63
53.54 51.15 51.18 52.06 51.04 51.64 51.70 52.19 51.42 52.25 52.07 51.19 52.08 53.80 56.76 60.29 60.92 61.82 62.81 63.57 64.01 64.52 65.34 66.86 67.93 68.69 70.07 70.49 69.62 70.63 71.35 71.36 71.79 71.71 71.77 72.07 72.85 73.16 73.76 74.38 75.40 75.68 75.33 75.46
53.36 53.38 51.68 50.91 50.46 50.72 50.22 52.29 52.03 51.38 50.29 53.08 52.50 52.88 58.48 60.79 62.92 62.28 62.69 64.24 64.72 65.89 65.98 67.14 69.74 70.43 69.76 69.75 70.00 70.46 70.73 71.12 71.99 71.92 72.14 74.06 74.62 74.90 74.67 74.69 74.62 74.84 74.62 74.67
52.39 51.78 51.54 49.83 49.79 50.96 48.86 52.29 52.35 52.57 53.01 54.33 52.41 55.63 59.61 59.12 61.01 62.33 63.36 65.20 66.27 67.61 68.92 70.08 70.59 70.65 70.62 70.71 71.44 71.51 72.27 72.98 73.33 73.30 73.46 72.99 72.94 72.58 72.09 71.88 72.06 71.79 70.73 70.88
53.59 51.40 51.11 50.87 50.67 45.72 52.88 54.10 53.83 53.06 53.63 55.31 56.82 57.21 59.54 60.84 62.62 64.05 65.39 65.67 67.98 69.09 70.22 71.10 71.47 71.53 71.90 72.52 72.32 72.30 72.42 72.16 71.88 70.99 70.26 70.06 70.70 69.36 68.51 68.42 67.91 67.84 67.83 68.18
53.93 53.01 51.30 49.53 49.26 50.38 52.50 54.07 54.68 53.03 52.58 56.78 56.68 58.11 59.77 60.92 61.97 61.76 64.91 67.07 69.59 70.73 71.48 72.32 72.56 72.02 71.68 71.47 71.29 71.03 70.45 69.72 69.02 67.68 66.81 67.05 67.59 66.44 66.66 66.75 66.83 66.86 67.19 65.57
52.79 53.62 52.87 49.50 47.69 46.03 53.51 55.79 57.84 57.13 51.69 56.43 57.16 57.32 59.52 61.28 58.37 61.34 64.36 66.65 70.11 71.70 72.37 72.26 71.49 71.25 70.61 70.18 70.34 69.07 67.46 66.88 65.70 65.51 65.49 66.84 66.45 66.31 66.43 66.69 66.05 66.18 65.69 64.69
51.56 51.71 50.68 50.34 49.28 50.93 54.04 56.24 57.33 51.02 53.24 57.06 57.63 57.95 58.02 60.51 61.73 62.72 65.16 66.47 70.97 72.07 72.43 72.21 71.28 70.81 70.02 69.54 68.77 66.67 65.75 65.15 65.68 66.14 66.40 65.97 66.38 66.40 66.75 65.51 64.62 64.19 64.33 63.96
50.82 50.22 49.68 50.05 48.60 46.91 55.37 56.43 54.21 55.29 57.66 57.89 58.13 58.41 58.56 60.04 62.01 64.19 65.39 66.28 70.03 71.60 71.51 71.54 70.72 69.82 68.45 67.78 66.62 64.50 64.15 65.35 66.06 66.36 66.09 66.47 66.42 65.70 64.55 63.83 63.43 63.74 63.49 63.12
48.38 48.69 49.74 49.92 50.82 54.04 54.75 53.56 55.87 56.95 56.64 58.06 58.67 58.90 60.82 61.38 61.19 64.47 65.48 67.36 70.01 71.32 70.99 71.47 70.54 68.48 66.72 65.41 64.94 63.90 64.25 65.39 65.70 65.74 65.79 66.42 65.59 64.27 64.12 63.38 63.16 62.54 63.67 62.36
49.88 50.13 51.15 51.18 51.49 50.49 52.11 53.32 54.00 56.34 55.77 57.59 58.92 59.23 61.15 62.29 62.53 64.33 66.25 68.25 69.50 70.38 70.75 71.53 69.78 67.05 64.63 64.03 64.23 64.35 64.27 65.54 65.49 65.40 65.47 65.32 64.62 63.19 63.51 63.31 63.16 62.75 62.48 61.98
46.57 47.87 48.35 49.07 51.30 52.30 53.43 53.69 53.93 54.27 56.02 55.58 57.51 58.38 60.15 62.42 64.39 65.21 66.59 68.12 69.45 70.10 71.23 71.07 69.22 67.24 64.80 64.62 64.43 64.35 65.36 65.56 65.08 65.03 64.03 63.74 63.63 63.31 62.46 62.54 61.96 62.55 62.92 60.30
46.37 45.05 44.14 46.12 48.91 49.82 51.30 52.99 54.64 54.52 55.17 56.32 56.96 57.36 59.59 62.23 63.47 66.21 67.08 68.20 69.24 69.55 70.97 69.60 68.27 66.21 64.90 64.60 63.89 65.07 65.39 65.63 64.72 63.29 62.74 62.43 62.80 62.31 62.33 61.60 60.33 49.99 50.23 49.05
MSLP
1007.31 1006.81 1006.06 1005.62 1005.97 1005.84 1005.77 1005.53 1005.50 1005.75 1005.99 1006.51 1007.32 1008.42 1009.64 1010.60 1011.27 1011.69 1012.03 1012.41 1012.60 1012.76 1013.25 1013.76 1014.16 1014.33 1014.75 1015.23 1015.72 1016.17 1016.45 1016.75 1017.08 1017.33 1017.45 1017.48 1017.34 1017.52 1017.62 1017.71 1017.99 1018.37 1018.66 1018.93
1006.72 1006.01 1005.34 1005.64 1005.58 1005.41 1005.46 1005.30 1005.18 1005.66 1005.91 1006.28 1007.35 1008.21 1009.15 1009.90 1010.35 1010.86 1011.24 1011.69 1012.05 1012.46 1012.81 1013.22 1013.56 1014.04 1014.38 1014.82 1015.34 1015.88 1016.22 1016.61 1016.91 1017.00 1017.08 1017.17 1017.35 1017.37 1017.35 1017.48 1017.81 1018.10 1018.32 1018.63
1006.26 1005.11 1004.94 1005.04 1004.92 1005.03 1004.91 1004.71 1004.87 1005.28 1005.98 1006.43 1006.94 1007.86 1008.74 1009.36 1009.88 1010.41 1010.89 1011.17 1011.52 1011.94 1012.21 1012.60 1013.12 1013.52 1014.01 1014.41 1014.90 1015.36 1015.80 1016.16 1016.56 1016.78 1017.01 1017.14 1017.36 1017.34 1017.40 1017.48 1017.61 1017.68 1018.09 1018.28
1005.93 1004.98 1004.67 1004.40 1004.09 1004.15 1003.94 1004.23 1004.65 1005.03 1005.50 1005.71 1006.53 1006.44 1007.63 1008.29 1008.89 1009.34 1009.73 1010.32 1010.77 1011.28 1011.81 1012.11 1012.63 1013.09 1013.59 1014.05 1014.60 1015.04 1015.42 1015.78 1016.11 1016.41 1016.57 1016.68 1016.62 1016.72 1017.00 1017.26 1017.49 1017.65 1017.82 1017.92
1004.76 1004.24 1003.94 1003.86 1003.69 1003.89 1004.19 1004.42 1004.56 1004.94 1005.30 1005.77 1006.02 1006.25 1006.30 1007.27 1007.59 1007.81 1008.51 1009.03 1009.65 1010.37 1011.01 1011.52 1012.01 1012.37 1012.90 1013.76 1014.25 1014.73 1015.07 1015.50 1015.73 1015.85 1016.09 1016.29 1016.40 1016.56 1017.00 1017.29 1017.52 1017.75 1017.71 1017.73
1004.11 1003.88 1003.67 1003.01 1003.05 1003.32 1003.87 1004.03 1004.47 1004.90 1005.00 1004.93 1005.41 1005.64 1004.89 1005.71 1005.33 1006.18 1007.26 1007.96 1008.72 1009.42 1010.26 1010.85 1011.51 1011.98 1012.39 1012.99 1013.70 1014.47 1014.75 1015.17 1015.58 1015.84 1016.03 1016.14 1016.39 1016.50 1016.87 1017.11 1017.12 1017.34 1017.54 1017.67
1003.57 1002.90 1002.49 1002.64 1002.77 1003.33 1003.36 1003.21 1003.73 1004.10 1004.34 1004.16 1005.09 1004.97 1003.27 1004.13 1004.52 1004.89 1005.94 1007.09 1007.95 1008.67 1009.41 1009.99 1010.52 1011.16 1011.81 1012.40 1012.99 1013.45 1014.05 1014.54 1015.02 1015.43 1015.55 1015.88 1016.06 1016.22 1016.37 1016.59 1016.66 1016.78 1016.97 1017.38
1003.05 1002.12 1001.85 1002.09 1001.70 1001.77 1002.42 1002.43 1002.38 1002.70 1003.43 1003.63 1004.65 1003.77 1002.88 1003.59 1004.02 1004.54 1005.06 1006.12 1007.11 1007.92 1008.45 1009.05 1009.62 1010.32 1010.94 1011.54 1012.17 1012.80 1013.39 1013.82 1014.30 1015.02 1015.27 1015.66 1015.93 1016.10 1016.20 1016.51 1016.70 1016.63 1016.70 1016.92
1002.75 1001.81 1001.27 1001.19 1001.24 1001.49 1002.16 1002.41 1002.44 1002.53 1003.76 1003.48 1003.26 1002.88 1002.92 1003.50 1004.11 1004.75 1005.18 1005.69 1006.25 1006.85 1007.51 1008.03 1008.73 1009.53 1010.19 1010.95 1011.51 1012.14 1012.76 1013.31 1013.89 1014.28 1014.83 1015.28 1015.74 1016.06 1016.22 1016.55 1016.65 1016.52 1016.52 1016.65
1002.66 1001.99 1001.20 1001.05 1001.35 1001.62 1001.48 1001.94 1002.08 1002.13 1002.44 1002.43 1002.45 1002.70 1002.36 1003.20 1003.78 1004.42 1004.90 1005.23 1005.57 1006.14 1006.83 1007.43 1008.06 1008.84 1009.60 1010.32 1011.03 1011.65 1012.20 1012.60 1012.97 1013.57 1014.09 1014.60 1015.14 1015.75 1016.18 1016.15 1016.21 1016.28 1016.22 1016.17
1002.32 1002.49 1001.28 1001.09 1000.74 1000.74 1001.55 1001.52 1001.95 1002.12 1002.36 1001.90 1001.98 1001.60 1002.06 1002.82 1003.46 1003.95 1004.71 1005.24 1005.62 1006.07 1006.59 1007.31 1007.85 1008.65 1009.31 1010.01 1010.64 1011.16 1011.65 1012.07 1012.48 1013.00 1013.45 1014.23 1014.67 1014.93 1015.28 1015.48 1015.74 1015.88 1015.87 1015.81
1002.33 1001.91 1001.24 1000.80 1000.86 1001.06 1000.72 1000.96 1001.04 1001.17 1002.09 1002.42 1002.14 1001.72 1002.45 1003.24 1003.51 1004.20 1004.82 1005.32 1005.76 1006.14 1006.83 1007.32 1007.85 1008.41 1008.94 1009.47 1010.01 1010.47 1011.00 1011.38 1011.68 1012.26 1013.16 1013.50 1013.89 1014.52 1014.81 1014.99 1015.12 1015.38 1015.25 1015.37
1001.99 1001.58 1001.07 1000.37 1000.64 1000.81 1000.35 1000.81 1001.03 1000.95 1001.19 1001.44 1001.23 1001.40 1002.65 1003.42 1003.75 1004.26 1004.74 1005.23 1005.79 1006.29 1006.87 1007.24 1007.84 1008.26 1008.64 1009.11 1009.57 1010.03 1010.50 1010.98 1011.38 1011.98 1012.56 1013.06 1013.27 1013.70 1014.12 1014.56 1014.75 1014.68 1014.76 1014.89
1001.59 1001.10 1000.32 999.76 999.60 1000.01 1000.22 1000.53 1000.79 1000.74 1000.22 1000.71 1000.59 1000.75 1001.96 1002.89 1003.60 1004.29 1004.79 1005.43 1005.84 1006.26 1006.74 1006.95 1007.41 1007.82 1008.39 1008.94 1009.27 1009.93 1010.23 1010.78 1011.28 1011.71 1012.27 1012.64 1013.06 1013.51 1013.65 1013.87 1014.21 1014.25 1014.26 1014.33
1001.79 1000.79 1000.77 1000.19 1000.17 1000.18 1000.03 1000.13 1000.34 1000.13 1000.35 1000.08 999.94 1000.36 1000.58 1001.47 1002.76 1003.80 1004.52 1005.24 1005.72 1006.16 1006.71 1007.02 1007.46 1007.67 1008.23 1008.71 1009.09 1009.53 1009.89 1010.62 1010.95 1011.64 1012.20 1012.61 1012.93 1013.28 1013.51 1013.62 1013.76 1013.99 1014.05 1014.18
1002.28 1001.30 1000.99 1000.40 1000.27 1000.33 1000.13 1000.07 1000.08 1000.13 1000.25 1000.24 1000.22 1000.17 1000.50 1001.36 1002.72 1003.73 1004.25 1004.86 1005.26 1005.69 1006.25 1006.95 1007.51 1007.99 1008.18 1008.55 1009.12 1009.56 1010.06 1010.55 1011.08 1011.69 1012.20 1012.59 1013.03 1013.22 1013.62 1013.68 1013.69 1014.07 1014.22 1014.40
1002.65 1002.01 1001.43 1000.71 1000.70 1000.38 1000.21 999.71 999.85 999.91 1000.05 999.70 999.75 999.69 1000.68 1001.62 1002.32 1003.21 1004.06 1004.54 1004.88 1005.39 1006.04 1006.74 1007.36 1007.85 1008.28 1008.92 1009.58 1009.82 1010.43 1010.93 1011.41 1011.97 1012.46 1012.98 1013.37 1013.66 1013.92 1014.19 1014.02 1014.27 1014.63 1014.74
1002.67 1002.49 1002.12 1001.14 1001.08 1000.29 999.44 1000.14 1000.22 1000.15 1000.36 1000.55 1000.44 1000.53 1001.04 1001.19 1002.11 1003.03 1003.74 1004.19 1004.82 1005.29 1006.07 1006.79 1007.34 1007.98 1008.52 1009.23 1009.90 1010.42 1010.77 1011.33 1012.09 1012.60 1013.08 1013.59 1013.70 1013.89 1014.34 1014.41 1014.40 1014.86 1015.05 1014.98
1003.09 1002.72 1002.38 1002.08 1000.95 1000.58 1000.36 1001.02 1001.09 1001.22 1001.92 1002.26 1001.75 1001.68 1001.83 1002.17 1002.33 1003.07 1003.49 1003.90 1004.23 1005.16 1006.04 1006.95 1007.79 1008.35 1009.21 1009.89 1010.29 1010.47 1011.02 1011.89 1012.49 1013.10 1013.63 1013.70 1013.89 1014.16 1014.48 1014.50 1014.76 1015.24 1015.32 1015.50
1003.51 1003.16 1002.45 1002.72 1001.86 1001.05 1000.78 1001.86 1002.27 1002.46 1002.84 1003.49 1003.33 1002.80 1002.51 1002.54 1001.94 1001.30 1002.63 1003.41 1004.12 1004.89 1005.90 1006.83 1007.75 1008.44 1008.94 1009.69 1010.12 1010.77 1011.43 1011.95 1012.75 1013.62 1014.04 1014.21 1014.41 1014.48 1014.48 1014.68 1015.34 1015.73 1015.87 1016.11
1003.52 1003.46 1002.78 1002.72 1002.54 1002.16 1002.90 1002.97 1002.88 1003.37 1004.59 1004.39 1004.29 1003.78 1003.39 1002.62 1002.51 1002.28 1002.54 1003.21 1003.70 1004.40 1005.54 1006.64 1007.10 1007.87 1008.89 1009.83 1010.11 1010.71 1011.42 1012.21 1013.22 1013.91 1014.36 1014.66 1014.88 1014.81 1014.70 1015.18 1015.80 1016.01 1016.30 1016.62
1004.29 1003.90 1003.41 1003.49 1003.46 1003.69 1003.88 1003.56 1003.98 1004.92 1004.91 1005.00 1004.74 1004.45 1004.02 1003.26 1002.85 1002.87 1003.02 1003.33 1003.44 1004.12 1005.36 1006.35 1007.13 1008.17 1009.21 1010.15 1010.24 1010.86 1011.65 1012.64 1013.51 1013.99 1014.41 1014.69 1014.91 1014.79 1015.09 1015.67 1016.22 1016.51 1016.76 1016.86
1006.12 1005.79 1004.98 1004.81 1004.28 1004.93 1004.93 1005.18 1005.64 1005.72 1005.57 1005.41 1005.06 1004.72 1004.26 1003.45 1003.08 1002.77 1002.97 1003.39 1003.46 1004.06 1005.13 1006.01 1006.91 1008.28 1009.49 1010.28 1010.69 1011.14 1012.33 1012.78 1013.37 1013.78 1014.19 1014.58 1015.07 1015.30 1015.66 1016.02 1016.40 1016.70 1016.86 1016.84
1007.02 1006.96 1006.16 1005.66 1005.74 1005.84 1006.04 1006.17 1006.17 1006.13 1005.81 1005.61 1005.25 1004.86 1004.12 1003.48 1002.88 1002.70 1002.95 1003.32 1003.95 1004.05 1004.79 1005.75 1006.96 1008.12 1009.20 1010.20 1010.96 1011.48 1012.18 1012.63 1013.05 1013.65 1014.23 1014.67 1015.20 1015.63 1015.99 1016.22 1016.43 1016.62 1016.83 1017.02
1008.15 1007.72 1006.97 1006.43 1006.47 1006.16 1006.27 1006.37 1006.38 1006.22 1005.96 1005.65 1005.43 1005.08 1004.50 1003.87 1003.22 1002.90 1003.02 1003.35 1003.77 1004.31 1004.57 1005.58 1006.50 1007.68 1008.88 1010.12 1011.00 1011.65 1011.93 1012.44 1012.98 1013.65 1014.26 1014.78 1015.35 1015.63 1016.05 1016.45 1016.89 1016.98 1017.50 1017.60
1008.23 1007.54 1007.15 1006.40 1006.98 1007.02 1006.82 1006.74 1006.54 1006.25 1005.89 1005.66 1005.31 1004.70 1004.42 1004.04 1003.50 1003.01 1003.07 1003.41 1003.72 1004.49 1004.67 1005.59 1006.58 1007.67 1008.93 1009.98 1010.87 1011.24 1011.77 1012.25 1012.89 1013.68 1014.34 1014.86 1015.23 1015.51 1015.95 1016.66 1017.47 1017.99 1018.12 1018.38
Wind_Speed
2 4 9 8 4 5 5 7 7 3 6 6 5 9 14 13 11 13 14 15 16 17 16 15 16 15 13 13 13 13 12 9 7 5 5 4 5 3 3 3 3 5 5 6
3 7 12 5 7 8 7 8 5 3 7 6 6 9 12 14 14 14 16 17 18 16 14 15 16 15 15 15 14 13 13 11 10 7 5 3 2 3 3 2 3 5 6 6
8 9 7 4 10 6 4 5 3 3 6 4 9 6 11 11 10 12 14 15 17 18 18 17 16 17 15 16 14 15 14 14 11 12 5 3 2 2 3 4 3 4 6 6
9 7 3 2 8 3 4 5 5 10 8 1 4 1 10 12 15 14 16 16 18 20 19 19 18 17 17 14 9 13 15 15 13 13 9 9 6 6 4 3 3 2 5 6
3 5 11 12 7 4 5 7 7 9 5 3 5 5 6 12 14 18 17 18 19 19 21 21 21 20 17 13 13 13 14 12 11 11 11 9 9 5 3 3 3 3 3 5
14 6 8 6 2 4 13 12 10 4 1 5 1 5 4 9 17 15 17 18 18 18 19 20 20 21 19 17 15 12 15 14 13 13 14 13 11 9 5 5 4 3 3 2
5 10 5 5 6 6 4 8 3 2 3 3 1 6 9 8 8 13 19 18 18 18 18 18 19 19 19 19 18 16 16 15 14 14 14 13 13 11 9 7 5 4 4 4
4 2 3 5 4 4 12 5 3 3 3 1 3 6 0 2 4 8 14 17 17 17 17 18 19 19 19 19 18 17 15 15 15 12 12 11 12 8 7 6 5 5 4 4
3 6 3 3 3 3 6 5 3 7 1 3 1 4 8 7 8 10 13 15 19 20 19 19 19 18 17 17 18 17 15 13 14 15 11 11 10 11 8 8 6 6 6 4
2 5 1 2 3 6 4 7 4 2 3 3 2 5 5 4 10 12 13 15 16 17 18 18 17 17 15 16 15 16 15 15 16 15 14 13 13 10 8 10 10 10 8 7
8 3 3 7 3 4 5 4 6 4 3 2 3 3 2 4 8 13 9 9 11 14 14 14 14 14 14 14 14 15 15 16 14 14 14 12 12 13 12 10 9 10 8 6
10 4 6 6 1 1 1 2 5 4 5 1 2 3 1 4 3 7 9 8 7 9 9 10 12 13 14 15 15 15 15 15 15 13 12 13 13 9 11 10 11 9 7 6
11 8 6 5 4 4 4 4 1 5 4 7 4 1 3 4 6 5 10 9 10 10 9 9 10 11 12 13 13 14 13 12 11 10 11 11 11 11 10 10 10 8 8 7
9 5 8 7 2 2 3 5 6 4 4 6 6 2 5 9 9 8 9 10 10 10 10 10 9 11 10 10 11 10 10 10 10 10 10 10 9 9 8 7 7 7 5 5
8 6 7 4 3 3 2 4 8 7 2 6 2 6 4 14 15 12 12 12 13 11 10 10 12 9 8 7 6 8 10 10 10 9 9 8 6 6 5 5 5 5 4 2
3 3 4 2 2 0 4 6 4 5 3 8 2 7 3 4 12 13 13 13 13 13 13 13 10 9 9 8 8 9 10 10 9 8 6 5 5 6 6 6 7 6 6 5
2 2 4 5 1 4 6 11 10 4 5 6 8 6 7 8 15 17 14 12 13 14 14 13 12 11 11 10 10 11 11 11 11 11 9 9 9 9 8 7 8 8 7 7
2 1 1 3 5 10 1 2 4 7 5 10 5 5 6 3 9 14 14 14 14 16 14 13 13 14 14 14 13 13 13 13 11 10 9 7 8 8 7 7 8 6 5 7
8 4 2 4 7 2 4 2 2 2 4 11 6 8 3 5 10 9 15 15 17 17 15 14 13 14 14 15 14 14 13 12 11 9 7 7 7 8 7 8 7 5 6 8
5 2 4 3 4 10 4 2 3 3 5 14 12 10 2 8 8 8 20 18 18 19 16 16 17 16 14 13 14 13 12 12 10 8 6 6 6 7 9 9 9 8 8 8
5 3 10 6 7 4 3 11 5 7 2 11 10 10 10 7 5 7 19 18 19 20 21 18 17 15 14 13 14 14 13 11 10 9 9 8 7 8 10 10 7 7 7 6
6 6 7 3 6 11 10 3 5 5 5 9 11 13 12 13 13 2 14 18 22 23 22 20 16 14 14 12 13 14 13 12 11 11 10 8 7 8 9 10 7 7 7 8
4 4 4 4 3 5 8 12 7 6 6 9 12 15 15 14 10 9 14 19 20 24 21 18 17 16 13 12 11 14 13 13 12 12 10 9 9 8 8 10 9 7 6 6
1 5 3 3 6 5 6 8 9 7 10 10 12 13 17 17 8 10 13 16 18 20 20 19 19 18 16 12 9 11 13 13 13 12 10 9 9 9 8 7 6 6 6 5
5 8 4 4 1 4 9 10 12 10 10 12 13 12 15 16 13 8 12 16 17 17 19 18 18 17 17 15 13 13 13 13 12 11 10 9 9 9 9 7 5 5 5 5
8 9 7 4 1 3 5 9 11 10 12 12 13 16 15 15 14 9 11 13 16 17 18 17 17 17 17 16 14 13 13 12 13 12 9 8 8 9 8 8 8 13 9 8
Wind_Direction
162 287 279 295 267 295 291 286 283 255 163 178 189 157 171 173 181 182 188 192 194 196 190 192 195 195 193 194 192 187 187 195 186 184 202 211 231 242 250 234 226 197 183 189
268 275 293 255 279 268 251 269 288 186 149 187 162 158 177 182 192 197 194 195 197 197 191 191 191 196 198 194 196 192 200 191 198 206 207 214 214 228 254 258 212 200 199 192
225 266 324 243 287 262 237 238 180 112 138 72 149 162 187 203 207 200 208 209 199 198 195 194 194 196 200 201 200 199 204 202 204 210 196 180 194 211 213 210 192 210 209 201
248 274 269 226 304 267 342 219 160 145 181 232 229 296 205 194 209 212 205 202 205 202 204 203 198 199 198 203 201 200 204 208 208 207 210 209 213 215 214 209 205 204 211 211
265 284 296 297 288 201 1 130 132 140 140 266 196 265 113 190 211 214 211 207 206 201 202 204 210 210 203 197 202 210 212 213 215 204 213 214 229 228 220 196 211 232 218 216
266 264 269 247 194 221 138 107 98 112 212 256 72 248 186 181 218 207 204 206 207 205 201 202 207 213 214 213 206 201 218 217 218 220 223 225 223 221 222 212 219 239 249 224
276 230 208 185 183 132 176 189 124 143 212 283 54 222 273 188 200 197 192 197 201 204 201 202 201 202 210 214 215 215 211 212 212 217 219 222 225 224 226 228 231 225 231 233
301 211 209 161 254 172 186 263 217 194 222 47 144 231 168 73 218 167 179 184 189 198 205 205 204 204 203 207 209 210 210 211 211 213 219 222 231 235 239 244 260 257 264 278
230 247 246 145 225 207 163 208 53 111 107 259 1 264 237 227 161 155 160 174 187 194 202 204 204 205 206 205 207 207 210 209 207 215 216 222 227 236 250 259 259 263 267 266
165 291 357 36 161 71 267 126 170 175 178 249 212 280 273 162 187 187 185 195 196 197 197 199 205 205 206 209 208 208 211 213 209 214 218 224 227 233 246 249 249 251 259 262
178 216 257 303 242 167 153 209 70 99 314 251 275 243 193 262 206 199 190 190 189 193 196 198 196 198 202 207 210 213 212 219 220 221 224 228 231 225 227 237 237 244 252 254
202 221 249 264 202 294 181 273 197 234 185 312 316 265 49 301 207 183 159 159 159 173 183 184 192 190 195 202 205 208 211 214 218 218 215 220 231 225 229 228 235 235 254 268
172 221 252 250 154 181 207 165 159 116 146 188 217 218 61 131 137 153 163 161 153 150 161 164 174 189 196 202 206 209 206 212 220 210 216 225 225 217 221 229 236 250 260 270
171 173 216 231 221 106 192 175 167 278 204 153 238 274 180 182 173 171 168 162 154 161 171 167 173 189 192 202 198 201 203 207 205 205 212 216 221 226 229 236 244 251 258 273
214 237 204 240 230 212 183 201 192 202 262 249 9 230 193 199 181 173 156 154 152 159 172 168 190 193 198 203 200 203 198 192 185 182 197 206 213 228 229 229 243 253 246 241
111 282 185 198 80 150 261 233 235 216 197 249 268 273 218 148 158 167 171 167 157 160 165 178 172 174 162 146 153 148 148 152 153 156 159 137 146 137 133 122 118 114 111 104
289 197 233 206 157 136 251 233 214 205 205 225 208 243 165 166 180 176 171 172 156 153 157 157 157 154 149 150 154 141 133 132 130 126 121 123 124 119 114 117 107 101 96 88
250 131 264 230 183 227 305 33 272 230 289 231 313 326 205 212 164 168 177 165 156 152 153 155 152 151 150 152 140 133 125 117 118 118 120 128 124 110 105 100 89 90 88 84
223 168 198 246 226 323 153 34 61 4 74 24 311 336 46 133 142 175 179 174 159 156 153 151 149 141 143 142 137 128 122 123 121 117 125 120 118 121 119 97 88 86 97 93
132 193 223 168 245 230 141 154 3 149 178 12 359 351 7 170 204 188 177 172 158 153 151 151 151 143 138 142 136 128 125 119 118 128 127 125 129 124 110 99 98 95 99 101
187 185 210 187 233 230 25 316 301 193 53 350 353 349 334 238 26 308 166 167 163 157 155 155 146 151 145 153 141 131 129 130 133 137 138 135 132 120 110 102 98 98 94 96
245 216 211 172 217 224 356 172 310 25 13 0 0 356 325 297 293 166 176 173 166 162 157 159 151 154 152 157 143 139 140 138 143 144 141 134 120 120 114 110 106 105 112 106
235 341 314 304 46 67 49 69 25 3 349 350 352 347 340 315 289 213 182 181 176 165 165 164 155 151 153 157 155 144 148 147 146 140 136 128 123 117 120 121 121 122 118 107
150 8 276 241 160 354 114 54 24 0 358 351 349 344 346 348 308 213 187 181 181 172 169 164 157 157 156 158 154 147 152 145 142 140 141 134 139 133 126 129 124 117 110 104
318 318 332 285 210 342 194 347 351 337 336 344 345 347 344 351 353 248 198 190 186 182 170 165 165 161 155 157 157 156 145 146 144 142 140 140 144 143 125 96 79 100 69 49
237 251 253 276 169 266 283 322 328 333 332 332 336 337 340 343 340 288 223 197 186 188 172 165 160 154 154 155 156 150 148 148 144 143 145 147 143 144 135 127 104 51 64 78